EW2310 Weather Reports


Display with metric or nautical units.
time (UTC)temp
F
wind
direction
speed
MPH
gust
MPH
rain 1hr
in
rain 24hr
in
rain mn
in
humidity
%
barometer
mb
20260504020543 58 316 0.0 0.0 0.00 0.00 0.00 81 1017.3
20260504020044 58 316 0.0 0.0 0.00 0.00 0.00 81 1017.3
20260504015543 58 316 0.0 0.0 0.00 0.00 0.00 81 1017.4
20260504015043 58 316 0.0 0.0 0.00 0.00 0.00 81 1017.4
20260504014543 58 316 0.0 0.0 0.00 0.00 0.00 80 1017.4
20260504014046 58 316 0.0 0.0 0.00 0.00 0.00 80 1017.3
20260504013543 58 316 0.0 0.0 0.00 0.00 0.00 80 1017.4
20260504013043 58 316 0.0 2.0 0.00 0.00 0.00 81 1017.3
20260504012543 58 316 1.0 2.0 0.00 0.00 0.00 82 1017.3
20260504012043 57 316 0.0 0.0 0.00 0.00 0.00 82 1017.3
20260504011546 57 316 0.0 0.0 0.00 0.00 0.00 81 1017.3
20260504011043 57 316 0.0 0.0 0.00 0.00 0.00 81 1017.4
20260504010543 57 316 0.0 0.0 0.00 0.00 0.00 81 1017.4
20260504010043 57 316 0.0 0.0 0.00 0.00 0.00 81 1017.4
20260504005543 58 316 0.0 0.0 0.00 0.00 0.00 80 1017.4
20260504005043 58 316 0.0 0.0 0.00 0.00 0.00 80 1017.5
20260504004543 58 316 0.0 0.0 0.00 0.00 0.00 80 1017.5
20260504004043 58 316 0.0 0.0 0.00 0.00 0.00 80 1017.4
20260504003543 58 316 0.0 0.0 0.00 0.00 0.00 80 1017.5
20260504003046 58 316 0.0 0.0 0.00 0.00 0.00 80 1017.5
20260504002546 58 316 0.0 0.0 0.00 0.00 0.00 80 1017.4
20260504002043 58 316 0.0 0.0 0.00 0.00 0.00 79 1017.4
20260504001546 58 316 0.0 2.0 0.00 0.00 0.00 80 1017.4
20260504001046 58 316 1.0 2.0 0.00 0.00 0.00 80 1017.4
20260504000546 58 316 0.0 3.0 0.00 0.00 0.00 79 1017.4
20260504000043 59 316 0.0 2.0 0.00 0.00 0.00 79 1017.4
20260503235543 59 316 0.0 2.0 0.00 0.00 0.00 79 1017.5
20260503235043 59 316 1.0 4.0 0.00 0.00 0.00 79 1017.5
20260503234543 59 309 3.0 3.0 0.00 0.00 0.00 79 1017.6
20260503234043 59 309 0.0 3.0 0.00 0.00 0.00 79 1017.7
20260503233543 59 309 1.0 3.0 0.00 0.00 0.00 79 1017.7
20260503233043 59 309 2.0 3.0 0.00 0.00 0.00 79 1017.8
20260503232543 59 309 0.0 1.0 0.00 0.00 0.00 79 1017.9
20260503232043 59 309 0.0 1.0 0.00 0.00 0.00 79 1018.0
20260503231546 59 309 0.0 1.0 0.00 0.00 0.00 79 1018.1
20260503231043 59 309 0.0 0.0 0.00 0.00 0.00 79 1018.1
20260503230543 59 309 0.0 1.0 0.00 0.00 0.00 79 1018.1
20260503230043 59 309 0.0 0.0 0.00 0.00 0.00 79 1018.1
20260503225543 59 309 0.0 0.0 0.00 0.00 0.00 79 1018.1
20260503225043 59 309 0.0 0.0 0.00 0.00 0.00 78 1018.2
20260503224543 59 309 0.0 1.0 0.00 0.00 0.00 78 1018.3
20260503224043 59 309 0.0 0.0 0.00 0.00 0.00 78 1018.3
20260503223543 59 309 0.0 1.0 0.00 0.00 0.00 78 1018.3
20260503223046 59 309 0.0 0.0 0.00 0.00 0.00 78 1018.4
20260503222546 59 309 0.0 1.0 0.00 0.00 0.00 78 1018.3
20260503222043 59 309 1.0 1.0 0.00 0.00 0.00 78 1018.4
20260503221543 59 309 0.0 1.0 0.00 0.00 0.00 78 1018.4
20260503221043 60 309 0.0 0.0 0.00 0.00 0.00 78 1018.4
20260503220543 60 309 0.0 0.0 0.00 0.00 0.00 78 1018.4
20260503220043 60 309 0.0 2.0 0.00 0.00 0.00 78 1018.3
20260503215543 60 309 0.0 3.0 0.00 0.00 0.00 78 1018.3
20260503215043 60 309 3.0 3.0 0.00 0.00 0.00 77 1018.2
20260503214543 60 308 2.0 3.0 0.00 0.00 0.00 76 1018.3
20260503214046 61 308 0.0 1.0 0.00 0.00 0.00 76 1018.2
20260503213543 61 308 1.0 2.0 0.00 0.00 0.00 76 1018.2
20260503213043 61 308 2.0 2.0 0.00 0.00 0.00 76 1018.1
20260503212543 61 308 1.0 3.0 0.00 0.00 0.00 76 1018.1
20260503212043 61 308 0.0 2.0 0.00 0.00 0.00 76 1018.1
20260503211543 61 308 0.0 3.0 0.00 0.00 0.00 75 1018.1
20260503211043 61 308 0.0 2.0 0.00 0.00 0.00 75 1018.1
20260503210543 61 308 2.0 3.0 0.00 0.00 0.00 75 1018.1
20260503210043 61 307 0.0 1.0 0.00 0.00 0.00 75 1018.2
20260503205543 61 307 0.0 3.0 0.00 0.00 0.00 75 1018.2
20260503205043 61 307 3.0 3.0 0.00 0.00 0.00 76 1018.1
20260503204543 61 304 0.0 3.0 0.00 0.00 0.00 75 1018.1
20260503204043 61 290 0.0 2.0 0.00 0.00 0.00 76 1018.1
20260503203543 61 288 0.0 3.0 0.00 0.00 0.00 76 1018.1
20260503203046 61 273 0.0 2.0 0.00 0.00 0.00 75 1018.1
20260503202543 61 277 1.0 1.0 0.00 0.00 0.00 75 1018.2
20260503202043 61 270 1.0 2.0 0.00 0.00 0.00 75 1018.1
20260503201543 61 270 1.0 3.0 0.00 0.00 0.00 75 1018.1
20260503201043 61 290 0.0 1.0 0.00 0.00 0.00 75 1018.1
20260503200543 62 290 1.0 2.0 0.00 0.00 0.00 75 1018.1
20260503200043 61 290 1.0 2.0 0.00 0.00 0.00 75 1018.0
20260503195543 62 293 0.0 2.0 0.00 0.00 0.00 74 1018.0
20260503195043 62 292 0.0 3.0 0.00 0.00 0.00 74 1018.0
20260503194543 62 309 0.0 2.0 0.00 0.00 0.00 74 1017.9
20260503194043 62 309 0.0 1.0 0.00 0.00 0.00 74 1017.9
20260503193543 62 309 0.0 2.0 0.00 0.00 0.00 74 1017.9
20260503193043 62 312 0.0 2.0 0.00 0.00 0.00 74 1017.8
20260503192543 62 315 0.0 3.0 0.00 0.00 0.00 74 1017.8
20260503192043 62 315 2.0 2.0 0.00 0.00 0.00 74 1017.7
20260503191546 62 308 0.0 1.0 0.00 0.00 0.00 74 1017.7
20260503191043 62 308 0.0 2.0 0.00 0.00 0.00 74 1017.7
20260503190546 62 308 0.0 1.0 0.00 0.00 0.00 74 1017.6
20260503190043 62 308 0.0 1.0 0.00 0.00 0.00 73 1017.5
20260503185543 62 308 0.0 1.0 0.00 0.00 0.00 73 1017.5
20260503185046 62 308 0.0 2.0 0.00 0.00 0.00 73 1017.4
20260503184543 62 317 0.0 4.0 0.00 0.00 0.00 73 1017.4
20260503184043 62 291 0.0 1.0 0.00 0.00 0.00 73 1017.4
20260503183543 62 292 0.0 2.0 0.00 0.00 0.00 73 1017.4
20260503183046 62 292 0.0 2.0 0.00 0.00 0.00 73 1017.3
20260503182543 63 289 1.0 3.0 0.00 0.00 0.00 73 1017.4
20260503182043 63 206 0.0 3.0 0.00 0.00 0.00 73 1017.4
20260503181543 63 248 3.0 6.0 0.00 0.00 0.00 73 1017.3
20260503181046 63 236 0.0 3.0 0.00 0.00 0.00 72 1017.3
20260503180543 63 5 0.0 4.0 0.00 0.00 0.00 72 1017.2
20260503180043 63 255 1.0 4.0 0.00 0.00 0.00 72 1017.2
20260503175543 63 309 1.0 4.0 0.00 0.00 0.00 71 1017.2
20260503175046 63 217 1.0 6.0 0.00 0.00 0.00 71 1017.2
20260503174543 63 300 2.0 4.0 0.00 0.00 0.00 70 1017.2
20260503174043 64 49 1.0 7.0 0.00 0.00 0.00 70 1017.2
20260503173543 64 15 3.0 7.0 0.00 0.00 0.00 70 1017.1
20260503173043 64 0 2.0 8.0 0.00 0.00 0.00 70 1017.1
20260503172543 64 65 2.0 10.0 0.00 0.00 0.00 70 1017.1
20260503172043 64 114 3.0 5.0 0.00 0.00 0.00 69 1016.9
20260503171543 64 51 3.0 8.0 0.00 0.00 0.00 69 1016.8
20260503171046 65 32 1.0 7.0 0.00 0.00 0.00 68 1016.8
20260503170546 65 0 2.0 7.0 0.00 0.00 0.00 67 1016.7
20260503150546 68 300 1.0 6.0 0.00 0.00 0.00 61 1017.2
20260503131043 69 36 6.0 10.0 0.00 0.00 0.00 61 1018.4
20260503130543 68 355 3.0 9.0 0.00 0.00 0.00 61 1018.5
20260503110543 69 31 3.0 5.0 0.00 0.00 0.00 52 1018.5
20260503081543 65 302 1.0 7.0 0.00 0.00 0.00 61 1019.3
20260503081043 64 317 4.0 10.0 0.00 0.00 0.00 62 1019.3
20260503080543 64 0 4.0 8.0 0.00 0.00 0.00 63 1019.4
20260503072546 63 311 3.0 10.0 0.00 0.00 0.00 68 1019.6
20260503072046 63 246 1.0 7.0 0.00 0.00 0.00 69 1019.6
20260503071543 63 355 1.0 10.0 0.00 0.00 0.00 70 1019.5
20260503071046 63 323 3.0 6.0 0.00 0.00 0.00 71 1019.5
20260503070543 62 305 5.0 9.0 0.00 0.00 0.00 72 1019.5
20260503055043 60 346 1.0 5.0 0.00 0.00 0.00 75 1019.4
20260503054543 60 331 2.0 5.0 0.00 0.00 0.00 75 1019.4
20260503054043 60 319 4.0 6.0 0.00 0.00 0.00 74 1019.3
20260503053543 61 294 1.0 2.0 0.00 0.00 0.00 75 1019.4
20260503053043 60 294 1.0 2.0 0.00 0.00 0.00 76 1019.3
20260503052543 60 294 1.0 2.0 0.00 0.00 0.00 76 1019.3
20260503052043 60 294 0.0 1.0 0.00 0.00 0.00 77 1019.3
20260503051543 59 294 0.0 1.0 0.00 0.00 0.00 77 1019.3
20260503051043 59 294 0.0 0.0 0.00 0.00 0.00 77 1019.3
20260503050543 58 294 0.0 1.0 0.00 0.00 0.00 78 1019.1
20260503050043 58 294 0.0 1.0 0.00 0.00 0.00 79 1019.1
20260503045543 57 294 0.0 2.0 0.00 0.00 0.00 79 1019.1
20260503045043 57 294 0.0 2.0 0.00 0.00 0.00 79 1019.1
20260503044542 57 294 0.0 1.0 0.00 0.00 0.00 79 1019.1
20260503044043 57 294 0.0 1.0 0.00 0.00 0.00 79 1019.1
20260503043543 56 294 0.0 1.0 0.00 0.00 0.00 79 1019.0
20260503043043 56 294 0.0 2.0 0.00 0.00 0.00 79 1019.1
20260503042543 56 294 2.0 3.0 0.00 0.00 0.00 79 1019.1
20260503042043 56 275 2.0 3.0 0.00 0.00 0.00 79 1019.0
20260503041543 56 274 0.0 2.0 0.00 0.00 0.00 79 1019.1
20260503041043 56 274 3.0 4.0 0.00 0.00 0.00 79 1019.1
20260503040543 56 264 3.0 4.0 0.00 0.00 0.00 80 1019.1
20260503040042 56 264 2.0 2.0 0.00 0.00 0.00 79 1019.1
20260503035543 56 264 0.0 1.0 0.00 0.00 0.00 79 1019.1
20260503035042 56 264 0.0 3.0 0.00 0.00 0.00 79 1019.1
20260503034543 56 264 0.0 1.0 0.00 0.00 0.00 79 1019.1
20260503034043 56 264 0.0 2.0 0.00 0.00 0.00 79 1019.0
20260503033543 56 264 0.0 0.0 0.00 0.00 0.00 78 1019.0
20260503033043 57 264 0.0 1.0 0.00 0.00 0.00 78 1019.0
20260503032545 57 264 0.0 1.0 0.00 0.00 0.00 78 1019.0
20260503032042 57 264 0.0 2.0 0.00 0.00 0.00 78 1019.0
20260503031543 56 264 2.0 2.0 0.00 0.00 0.00 79 1019.0
20260503031043 56 264 0.0 1.0 0.00 0.00 0.00 79 1019.1
20260503030543 56 264 0.0 0.0 0.00 0.00 0.00 78 1019.1
20260503030043 56 264 0.0 1.0 0.00 0.00 0.00 78 1019.1
20260503025543 56 264 0.0 1.0 0.00 0.00 0.00 78 1019.1
20260503025046 56 264 0.0 2.0 0.00 0.00 0.00 78 1019.2
20260503024546 56 264 0.0 2.0 0.00 0.00 0.00 78 1019.1
20260503024043 56 264 2.0 2.0 0.00 0.00 0.00 78 1019.1
20260503023543 56 264 0.0 1.0 0.00 0.00 0.00 78 1019.1
20260503023043 56 264 1.0 1.0 0.00 0.00 0.00 78 1019.2
20260503022543 56 264 0.0 2.0 0.00 0.00 0.00 79 1019.2
20260503022046 56 264 1.0 1.0 0.00 0.00 0.00 78 1019.2
20260503021543 56 263 0.0 1.0 0.00 0.00 0.00 78 1019.3
20260503021043 56 264 0.0 0.0 0.00 0.00 0.00 77 1019.3